[[{"header":{"parameterUnit":"m.s-1","parameterCategory":1,"la1":30.2991,"la2":30.254,"lo1":-89.0895,"lo2":-89.0444,"dy":0.0017,"dx":0.0017,"nx":28,"ny":28,"refTime":"2024-07-20T09:00:00:Z","depth":0,"parameterNumber":2,"parameterNumberName":"U-component_of_WINDS"},"data":[0,0,0,0,0,0,0,0,0,0,0,0,0,0,0,0,0,0,0,0,0,0,0,0,0,0,0,0,0,0,0,0,0,0,0,0,0,0,0,0,0,0,0,0,0,0,0,0,0,0,0,0,0,0,0,0,0,0,0.0647,0.0646,0,0.0581,0.0581,0.058,0.0506,0.0505,0.0504,0.0503,0.0436,0.0435,0.0434,0,0,0,0,0,0,0,0,0,0,0,0,0,0.0708,0.0707,0.0647,0.0646,0.0645,0.0582,0.0581,0.058,0.0507,0.0505,0.0504,0.0503,0.0436,0.0435,0.0434,0,0,0,0,0,0,0,0,0,0,0,0,0,0.0666,0.0707,0.0647,0.0601,0.0596,0.0582,0.0581,0.058,0.0507,0.0505,0.0504,0.0502,0.0436,0.0435,0.0434,0.0459,0,0,0.043,0.043,0,0,0,0,0,0,0,0,0.0668,0.0664,0.0609,0.0604,0.0599,0.055,0.0577,0.0539,0.0507,0.0541,0.0503,0.0501,0.0475,0.0471,0.0462,0.0456,0.0453,0.043,0.043,0.0429,0.0429,0,0,0,0,0,0,0,0.0671,0.0666,0.0621,0.0608,0.0602,0.0584,0.0576,0.057,0.0518,0.0538,0.0532,0.0526,0.0472,0.0463,0.046,0.0452,0.043,0.0429,0.0429,0.0428,0.0463,0.0464,0,0,0,0,0,0,0.0681,0.0669,0.0623,0.0619,0.063,0.0584,0.0575,0.0568,0.0518,0.0509,0.0527,0.0522,0.0466,0.0461,0.0457,0.0483,0.0429,0.0428,0.0427,0.0461,0.0463,0.0465,0,0,0,0,0,0,0.0683,0.0678,0.0626,0.0643,0.0634,0.0584,0.0577,0.0567,0.0558,0.051,0.05,0.0528,0.0465,0.0459,0.0459,0.0479,0.0428,0.0426,0.0459,0.0462,0.0464,0.0535,0,0,0,0,0,0,0.0685,0.0679,0.0688,0.0643,0.0634,0.0629,0.0578,0.0567,0.0556,0.055,0.0508,0.0499,0.0463,0.0461,0.0458,0.0477,0.0426,0.0457,0.046,0.0463,0.053,0.0539,0.0547,0,0,0,0,0,0.0687,0.0711,0.0689,0.0684,0.0644,0.0631,0.0625,0.0583,0.0558,0.0567,0.0536,0.05,0.0478,0.0462,0.0458,0.0477,0.0456,0.0459,0.0463,0.0527,0.0538,0.0547,0,0,0,0,0,0,0.0759,0.0704,0.0679,0.0689,0.0665,0.0618,0.0628,0.0596,0.0579,0.0573,0.0522,0.0513,0.0519,0.0498,0.0481,0.0498,0.0462,0.0465,0.0512,0.0521,0.053,0.0534,0.0425,0,0,0,0,0,0.0776,0.077,0.0722,0.0735,0.0724,0.0678,0.0671,0.0641,0.0614,0.0603,0.0572,0.0547,0.0534,0.0527,0.0512,0.0527,0.0516,0.0538,0.0546,0.0553,0.0556,0.0562,0.0571,0.0477,0.0477,0.0477,0,0,0.0811,0.078,0.0779,0.0749,0.0726,0.072,0.067,0.0666,0.0661,0.0602,0.06,0.0577,0.0545,0.0553,0.0555,0.0535,0.058,0.0558,0.0564,0.0563,0.0567,0.0575,0.0583,0.0479,0.0479,0.0479,0,0,0.0872,0.0848,0.0856,0.0835,0.0802,0.0771,0.0774,0.0731,0.0713,0.0711,0.0666,0.0659,0.0639,0.0618,0.0605,0.0657,0.0624,0.0654,0.0697,0.0703,0.0711,0.0717,0.0735,0.0743,0.0657,0.0658,0.0658,0,0.0919,0.0909,0.0864,0.0863,0.085,0.0797,0.0804,0.0786,0.075,0.0743,0.0721,0.0694,0.0669,0.0671,0.0684,0.0675,0.0675,0.0659,0.0713,0.0719,0.0724,0.0741,0.0748,0.0661,0.0661,0.0661,0.066,0,0.0968,0.0962,0.0972,0.0939,0.0928,0.0931,0.0886,0.088,0.0851,0.0823,0.0821,0.0789,0.0767,0.0765,0.0737,0.0763,0.0752,0.0723,0.0685,0.0738,0.0753,0.0759,0.0667,0.0666,0.0664,0.0663,0,0,0.1072,0.1014,0.1018,0.1003,0.0962,0.0956,0.0957,0.0936,0.0931,0.0908,0.0907,0.0891,0.0864,0.0849,0.0818,0.0823,0.0866,0.0793,0.0792,0.0807,0.0892,0.0914,0.0922,0.0844,0.0845,0.0846,0.0895,0,0.1124,0.1122,0.1082,0.1091,0.1084,0.1034,0.1034,0.1009,0.0983,0.0973,0.0943,0.0932,0.0898,0.0888,0.0892,0.086,0.0882,0.0856,0.0842,0.0842,0.0851,0.093,0.0953,0.1001,0.09,0.0901,0.0902,0,0.1185,0.1166,0.1175,0.1134,0.113,0.1131,0.1108,0.1099,0.107,0.1051,0.1034,0.0999,0.0996,0.0961,0.0957,0.094,0.0932,0.0916,0.0916,0.0913,0.0875,0.0928,0.1015,0.1022,0.0911,0.091,0.091,0,0.1259,0.1236,0.1237,0.1226,0.1179,0.1181,0.1161,0.113,0.112,0.11,0.1093,0.1073,0.1062,0.1047,0.1007,0.0985,0.1007,0.0968,0.099,0.0991,0.0996,0.0996,0.1082,0.0992,0.0992,0.0992,0.0992,0,0.1322,0.1329,0.127,0.1271,0.1277,0.1231,0.1239,0.1214,0.1187,0.1183,0.1138,0.1134,0.1082,0.1072,0.1041,0.1042,0.1037,0.1021,0.1012,0.1025,0.1027,0.1018,0.1014,0.0994,0.0993,0.0993,0.0992,0,0.1405,0.1366,0.1364,0.132,0.1309,0.1316,0.1277,0.1277,0.1248,0.1242,0.1238,0.1192,0.1179,0.1138,0.1114,0.1093,0.1103,0.1087,0.1113,0.1107,0.113,0.1129,0.1213,0.1222,0.1127,0.1128,0.1129,0,0.1447,0.1451,0.1407,0.1401,0.1383,0.1374,0.1363,0.1318,0.1309,0.1276,0.1279,0.1262,0.1246,0.1227,0.1191,0.1172,0.1156,0.1187,0.1152,0.1165,0.1155,0.1155,0.1155,0.1194,0.1195,0.1196,0.1197,0,0.1525,0.1506,0.1492,0.1472,0.1461,0.1443,0.1422,0.1419,0.1369,0.136,0.1346,0.1334,0.1309,0.1293,0.1269,0.1248,0.1214,0.1208,0.1212,0.1224,0.1239,0.1231,0.1132,0.1206,0.1205,0.1205,0.1204,0.1204,0.1588,0.1589,0.1559,0.1545,0.1525,0.1507,0.1504,0.1475,0.1462,0.1439,0.1413,0.1402,0.1373,0.1337,0.1319,0.1309,0.1291,0.1296,0.1298,0.13,0.1305,0.1241,0.1304,0.1304,0.1304,0.1303,0.1303,0,0.1663,0.1642,0.163,0.1602,0.1592,0.1561,0.1537,0.153,0.1521,0.1496,0.1482,0.1465,0.1449,0.1413,0.1393,0.1392,0.1376,0.1389,0.1388,0.1384,0.1323,0.1321,0.1402,0.1402,0.1402,0.1402,0.1402,0.1402,0.1701,0.1702,0.1679,0.1669,0.1647,0.1636,0.1625,0.1608,0.1588,0.1572,0.1559,0.1535,0.1506,0.1484,0.1468,0.1457,0.1452,0.1469,0.1454,0.1398,0.1388,0.1379,0.1377,0.1469,0.1469,0.1515,0.1516,0.1516]},{"header":{"parameterUnit":"m.s-1","parameterCategory":1,"la1":30.2991,"la2":30.254,"lo1":-89.0895,"lo2":-89.0444,"dy":0.0017,"dx":0.0017,"nx":28,"ny":28,"refTime":"2024-07-20T09:00:00:Z","depth":0,"parameterNumber":3,"parameterNumberName":"V-component_of_WINDS"},"data":[0,0,0,0,0,0,0,0,0,0,0,0,0,0,0,0,0,0,0,0,0,0,0,0,0,0,0,0,0,0,0,0,0,0,0,0,0,0,0,0,0,0,0,0,0,0,0,0,0,0,0,0,0,0,0,0,0,0,6.3816,6.3817,0,6.3938,6.394,6.3941,6.3885,6.3882,6.3879,6.3876,6.3993,6.3999,6.4005,0,0,0,0,0,0,0,0,0,0,0,0,0,6.3522,6.3528,6.3816,6.3817,6.3819,6.3938,6.394,6.3941,6.3886,6.3882,6.3878,6.3875,6.3991,6.3998,6.4005,0,0,0,0,0,0,0,0,0,0,0,0,0,6.3648,6.353,6.3815,6.3806,6.3806,6.3938,6.394,6.3942,6.3887,6.3882,6.3877,6.3873,6.3989,6.3998,6.4006,6.4152,0,0,6.4034,6.4037,0,0,0,0,0,0,0,0,6.3641,6.3658,6.3805,6.3806,6.3807,6.3892,6.3879,6.4012,6.3888,6.3856,6.3876,6.3871,6.3963,6.3973,6.4006,6.4158,6.4163,6.4034,6.404,6.4044,6.4046,0,0,0,0,0,0,0,6.3632,6.3653,6.3864,6.3808,6.3809,6.3791,6.3804,6.3904,6.3933,6.3858,6.3854,6.387,6.3962,6.3998,6.4008,6.4165,6.4034,6.4042,6.4047,6.4051,6.4437,6.4441,0,0,0,0,0,0,6.3625,6.3646,6.386,6.3868,6.3711,6.38,6.3815,6.3869,6.3932,6.3937,6.3874,6.3867,6.3985,6.3998,6.4012,6.4184,6.4043,6.4052,6.4057,6.4432,6.4438,6.4443,0,0,0,0,0,0,6.3619,6.3645,6.3855,6.3756,6.3781,6.381,6.3872,6.3874,6.391,6.3944,6.3948,6.3906,6.3982,6.4,6.4117,6.4187,6.4056,6.4064,6.4426,6.4434,6.4441,6.453,0,0,0,0,0,0,6.3611,6.3643,6.3701,6.3758,6.3787,6.3962,6.3876,6.388,6.3926,6.3918,6.3975,6.3979,6.3979,6.4104,6.4126,6.4197,6.4071,6.442,6.443,6.4438,6.4521,6.4539,6.4555,0,0,0,0,0,6.36,6.3721,6.3705,6.3731,6.3861,6.3966,6.3982,6.3982,6.3932,6.3989,6.401,6.3978,6.4177,6.4117,6.4141,6.4215,6.4415,6.4427,6.4438,6.4513,6.4536,6.4555,0,0,0,0,0,0,6.3669,6.3728,6.3711,6.3853,6.3905,6.3956,6.4028,6.4007,6.4072,6.4062,6.4056,6.4069,6.419,6.4215,6.4148,6.4357,6.4288,6.4304,6.4337,6.4359,6.4376,6.4365,6.4078,0,0,0,0,0,6.3701,6.3784,6.383,6.3951,6.3979,6.3999,6.4045,6.4041,6.4093,6.4113,6.4144,6.4193,6.4266,6.4314,6.4384,6.4525,6.4533,6.4587,6.4605,6.4619,6.4632,6.4703,6.4727,6.4479,6.4479,6.4479,0,0,6.3767,6.381,6.3862,6.3966,6.4006,6.4088,6.4018,6.4109,6.4168,6.4126,6.4239,6.4263,6.4317,6.4446,6.4504,6.447,6.4702,6.4633,6.4644,6.4649,6.4717,6.474,6.4761,6.4487,6.4486,6.4484,0,0,6.3929,6.3972,6.4076,6.4117,6.4179,6.4192,6.4217,6.4271,6.4285,6.4399,6.4368,6.4438,6.4565,6.4604,6.464,6.4815,6.4786,6.4838,6.4927,6.4997,6.5016,6.5033,6.5091,6.5113,6.4852,6.4852,6.4852,0,6.4003,6.4129,6.4131,6.4224,6.4268,6.4237,6.4339,6.4378,6.4458,6.4488,6.445,6.4607,6.4642,6.4777,6.4819,6.4852,6.4876,6.483,6.5014,6.5031,6.5047,6.5102,6.5124,6.4858,6.4857,6.4856,6.4856,0,6.4214,6.4302,6.4377,6.4458,6.4511,6.4608,6.4621,6.4674,6.4665,6.468,6.4794,6.4835,6.491,6.4942,6.4934,6.5076,6.5052,6.5015,6.4943,6.5076,6.5127,6.5149,6.4866,6.4864,6.4862,6.4861,0,0,6.4421,6.4501,6.4529,6.4563,6.4628,6.4694,6.4788,6.4864,6.4907,6.4964,6.5039,6.5147,6.5112,6.5153,6.5148,6.5211,6.5341,6.5164,6.5165,6.5192,6.5494,6.5519,6.5544,6.5323,6.5327,6.5331,6.5488,0,6.4585,6.4753,6.4756,6.4908,6.4986,6.4956,6.5037,6.5084,6.5101,6.5166,6.5183,6.5259,6.5209,6.5233,6.5293,6.5312,6.5401,6.5302,6.5388,6.5392,6.5372,6.5572,6.56,6.5746,6.5509,6.5512,6.5515,0,6.4798,6.4862,6.5023,6.5074,6.5106,6.518,6.5248,6.5313,6.5363,6.5371,6.5417,6.5402,6.5493,6.5423,6.5546,6.5478,6.5514,6.5528,6.5534,6.5539,6.5459,6.5578,6.5794,6.5814,6.5547,6.5545,6.5542,0,6.4928,6.5055,6.5166,6.5197,6.526,6.5311,6.534,6.5386,6.5431,6.5489,6.5517,6.5585,6.5622,6.5673,6.5675,6.5624,6.5798,6.5728,6.5802,6.5802,6.5837,6.5835,6.6058,6.5868,6.5867,6.5867,6.5866,0,6.5108,6.5206,6.5225,6.5293,6.54,6.5402,6.5507,6.553,6.5572,6.564,6.5619,6.5683,6.5685,6.575,6.5752,6.5851,6.5869,6.5874,6.5873,6.5874,6.5873,6.5894,6.5883,6.5873,6.5871,6.587,6.5869,0,6.527,6.5287,6.5406,6.5456,6.5471,6.5547,6.5589,6.5651,6.5666,6.5753,6.5774,6.5795,6.587,6.5879,6.5966,6.5967,6.6085,6.6075,6.6069,6.6066,6.6138,6.613,6.638,6.6411,6.6204,6.6206,6.6208,0,6.5382,6.5457,6.5515,6.5561,6.5593,6.5667,6.5712,6.5716,6.5763,6.5825,6.5879,6.5953,6.6011,6.6132,6.6153,6.6218,6.6207,6.629,6.6216,6.6214,6.6203,6.6197,6.6202,6.6303,6.6305,6.6307,6.6309,0,6.5577,6.5582,6.565,6.572,6.5775,6.583,6.5882,6.592,6.5929,6.5983,6.6061,6.6106,6.6195,6.6266,6.633,6.6355,6.6332,6.6332,6.6352,6.6352,6.6344,6.6345,6.6103,6.6326,6.6324,6.6323,6.6322,6.6321,6.5715,6.5778,6.5829,6.5904,6.5944,6.5992,6.6053,6.6075,6.6141,6.6215,6.6212,6.6296,6.6341,6.6425,6.6455,6.6518,6.649,6.652,6.6527,6.6533,6.6538,6.6337,6.653,6.653,6.6529,6.6529,6.6529,0,6.5905,6.5936,6.6006,6.6079,6.6137,6.6115,6.617,6.6218,6.6294,6.6339,6.6397,6.6484,6.6553,6.658,6.6646,6.6691,6.6681,6.6707,6.6702,6.6707,6.6562,6.6536,6.6714,6.6713,6.6713,6.6713,6.6713,6.6713,6.6011,6.6116,6.6127,6.6249,6.6279,6.6363,6.6396,6.6439,6.6474,6.6573,6.6631,6.6649,6.6686,6.6754,6.6814,6.682,6.6843,6.6873,6.6874,6.6737,6.6718,6.67,6.6676,6.6879,6.688,6.7014,6.7015,6.7016]}]]